DW0364 Weather Reports


Display with metric or nautical units.
time (UTC)temp
F
wind
direction
speed
MPH
gust
MPH
rain 1hr
in
rain 24hr
in
rain mn
in
humidity
%
barometer
mb
20260505014001 61 267 0.0 0.0 0.00 0.00 0.00 60 1014.2
20260505013457 61 267 0.0 0.0 0.00 0.00 0.00 58 1014.5
20260505012954 62 267 0.0 0.0 0.00 0.00 0.00 59 1014.3
20260505012453 62 267 0.0 0.0 0.00 0.00 0.00 58 1014.4
20260505011949 62 267 0.0 0.0 0.00 0.00 0.00 58 1014.1
20260505011445 63 267 0.0 0.0 0.00 0.00 0.00 56 1014.2
20260505010942 63 267 0.0 0.0 0.00 0.00 0.00 56 1014.0
20260505010438 63 267 0.0 0.0 0.00 0.00 0.00 55 1014.1
20260505005934 64 267 0.0 0.0 0.00 0.00 0.00 55 1013.8
20260505005431 64 267 0.0 0.0 0.00 0.00 0.00 55 1014.0
20260505004929 64 267 0.0 0.0 0.00 0.00 0.00 54 1014.0
20260505004425 65 267 0.0 0.0 0.00 0.00 0.00 53 1014.0
20260505003922 65 267 0.0 0.0 0.00 0.00 0.00 53 1013.8
20260505003419 65 267 0.0 0.0 0.00 0.00 0.00 52 1013.8
20260505002915 66 267 0.0 0.0 0.00 0.00 0.00 52 1013.8
20260505002412 66 267 0.0 0.0 0.00 0.00 0.00 52 1013.7
20260505001910 67 267 0.0 0.0 0.00 0.00 0.00 51 1013.7
20260505001408 68 267 0.0 0.0 0.00 0.00 0.00 51 1013.7
20260505000905 68 267 0.0 0.0 0.00 0.00 0.00 50 1013.8
20260505000403 69 267 0.0 0.0 0.00 0.00 0.00 49 1013.7
20260504235859 69 267 0.0 0.0 0.00 0.00 0.00 48 1013.5
20260504235356 69 267 0.0 0.0 0.00 0.00 0.00 49 1013.4
20260504234852 70 267 0.0 0.0 0.00 0.00 0.00 48 1013.4
20260504234350 71 267 0.0 0.0 0.00 0.00 0.00 48 1013.4
20260504233846 71 267 0.0 0.0 0.00 0.00 0.00 46 1013.2
20260504233342 71 267 0.0 0.0 0.00 0.00 0.00 45 1013.5
20260504232839 71 267 0.0 0.0 0.00 0.00 0.00 46 1013.4
20260504232336 72 267 0.0 0.0 0.00 0.00 0.00 44 1013.1
20260504231833 73 267 0.0 0.0 0.00 0.00 0.00 43 1013.3
20260504231329 73 267 0.0 1.0 0.00 0.00 0.00 42 1013.2
20260504230825 73 266 0.0 1.0 0.00 0.00 0.00 40 1013.3
20260504230323 73 267 0.0 1.0 0.00 0.00 0.00 40 1013.1
20260504225822 74 288 0.0 2.0 0.00 0.00 0.00 39 1013.0
20260504225318 74 274 1.0 2.0 0.00 0.00 0.00 40 1013.0
20260504224816 74 272 0.0 3.0 0.00 0.00 0.00 39 1013.2
20260504224312 74 264 2.0 2.0 0.00 0.00 0.00 40 1013.2
20260504223809 74 280 1.0 2.0 0.00 0.00 0.00 40 1013.1
20260504223304 74 278 1.0 2.0 0.00 0.00 0.00 40 1013.2
20260504222801 74 316 0.0 0.0 0.00 0.00 0.00 41 1013.1
20260504222258 75 22 0.0 2.0 0.00 0.00 0.00 39 1013.2
20260504221756 75 269 2.0 2.0 0.00 0.00 0.00 38 1013.1
20260504221253 75 286 1.0 2.0 0.00 0.00 0.00 37 1012.9
20260504220750 75 269 1.0 2.0 0.00 0.00 0.00 39 1013.1
20260504220247 75 279 0.0 1.0 0.00 0.00 0.00 39 1013.3
20260504215744 75 337 0.0 2.0 0.00 0.00 0.00 39 1013.2
20260504215240 75 240 1.0 2.0 0.00 0.00 0.00 37 1013.1
20260504214736 75 291 0.0 1.0 0.00 0.00 0.00 40 1013.3
20260504214233 75 285 0.0 1.0 0.00 0.00 0.00 38 1013.2
20260504213729 75 296 0.0 2.0 0.00 0.00 0.00 39 1013.2
20260504213225 75 307 0.0 2.0 0.00 0.00 0.00 39 1013.2
20260504212722 75 265 0.0 2.0 0.00 0.00 0.00 38 1013.3
20260504212214 75 16 1.0 1.0 0.00 0.00 0.00 37 1013.1
20260504211711 75 319 1.0 5.0 0.00 0.00 0.00 35 1013.2
20260504211207 76 280 2.0 2.0 0.00 0.00 0.00 35 1013.4
20260504210705 76 269 1.0 2.0 0.00 0.00 0.00 35 1013.3
20260504210202 77 269 1.0 5.0 0.00 0.00 0.00 35 1013.3
20260504205659 77 267 2.0 2.0 0.00 0.00 0.00 36 1013.3
20260504205156 77 263 3.0 3.0 0.00 0.00 0.00 36 1013.2
20260504204654 78 265 3.0 3.0 0.00 0.00 0.00 35 1013.3
20260504204153 77 290 0.0 1.0 0.00 0.00 0.00 37 1013.3
20260504203651 78 271 1.0 5.0 0.00 0.00 0.00 37 1013.5
20260504203149 78 279 2.0 3.0 0.00 0.00 0.00 36 1013.5
20260504202648 78 299 2.0 3.0 0.00 0.00 0.00 36 1013.6
20260504202146 78 310 0.0 2.0 0.00 0.00 0.00 36 1013.5
20260504201643 78 336 1.0 2.0 0.00 0.00 0.00 35 1013.8
20260504201141 78 177 1.0 2.0 0.00 0.00 0.00 33 1013.9
20260504200638 78 305 0.0 2.0 0.00 0.00 0.00 35 1013.8
20260504200134 77 276 1.0 2.0 0.00 0.00 0.00 33 1014.0
20260504195630 78 299 2.0 6.0 0.00 0.00 0.00 35 1014.1
20260504195126 79 273 2.0 3.0 0.00 0.00 0.00 36 1013.9
20260504194623 78 318 0.0 2.0 0.00 0.00 0.00 36 1014.0
20260504194119 77 303 1.0 3.0 0.00 0.00 0.00 36 1014.2
20260504193616 79 268 2.0 3.0 0.00 0.00 0.00 37 1014.2
20260504193114 77 297 0.0 2.0 0.00 0.00 0.00 39 1014.2
20260504192612 77 315 0.0 2.0 0.00 0.00 0.00 36 1014.3
20260504192110 77 280 1.0 3.0 0.00 0.00 0.00 36 1014.3
20260504191608 78 295 0.0 2.0 0.00 0.00 0.00 36 1014.2
20260504191104 79 262 2.0 2.0 0.00 0.00 0.00 35 1014.3
20260504190600 77 316 1.0 1.0 0.00 0.00 0.00 36 1014.2
20260504190056 77 262 2.0 2.0 0.00 0.00 0.00 35 1014.3
20260504185553 77 294 1.0 3.0 0.00 0.00 0.00 36 1014.6
20260504185050 77 294 1.0 2.0 0.00 0.00 0.00 34 1014.6
20260504184545 77 308 0.0 2.0 0.00 0.00 0.00 35 1014.6
20260504184041 76 294 2.0 2.0 0.00 0.00 0.00 34 1014.8
20260504183538 76 286 1.0 3.0 0.00 0.00 0.00 35 1014.7
20260504183036 77 301 1.0 3.0 0.00 0.00 0.00 34 1014.8
20260504182533 77 268 2.0 2.0 0.00 0.00 0.00 35 1015.0
20260504182030 78 234 2.0 3.0 0.00 0.00 0.00 34 1014.8
20260504181527 77 347 0.0 1.0 0.00 0.00 0.00 35 1015.2
20260504181026 77 322 0.0 2.0 0.00 0.00 0.00 37 1014.8
20260504180524 77 352 1.0 2.0 0.00 0.00 0.00 34 1015.0
20260504180023 76 347 0.0 1.0 0.00 0.00 0.00 33 1014.8
20260504175519 76 34 0.0 2.0 0.00 0.00 0.00 34 1015.2
20260504175016 75 275 1.0 2.0 0.00 0.00 0.00 37 1015.4
20260504174514 76 70 1.0 2.0 0.00 0.00 0.00 34 1015.1
20260504174011 74 258 1.0 2.0 0.00 0.00 0.00 36 1015.2
20260504173508 74 290 1.0 2.0 0.00 0.00 0.00 37 1015.3
20260504173005 75 274 1.0 2.0 0.00 0.00 0.00 37 1015.4
20260504172501 74 302 1.0 2.0 0.00 0.00 0.00 35 1015.3
20260504171957 75 358 3.0 3.0 0.00 0.00 0.00 34 1015.5
20260504171455 75 307 1.0 1.0 0.00 0.00 0.00 35 1015.6
20260504170951 75 322 0.0 1.0 0.00 0.00 0.00 36 1015.7
20260504170447 75 273 1.0 2.0 0.00 0.00 0.00 36 1015.8
20260504160408 73 348 0.0 2.0 0.00 0.00 0.00 38 1016.8
20260504150831 71 315 1.0 1.0 0.00 0.00 0.00 42 1017.1
20260504150328 70 287 1.0 2.0 0.00 0.00 0.00 40 1016.9
20260504141258 67 320 0.0 0.0 0.00 0.00 0.00 52 1016.9
20260504140755 65 281 1.0 1.0 0.00 0.00 0.00 57 1016.9
20260504140250 66 347 0.0 2.0 0.00 0.00 0.00 58 1017.0
20260504130719 62 313 0.0 1.0 0.00 0.00 0.00 66 1016.9
20260504130214 61 320 0.0 0.0 0.00 0.00 0.00 68 1016.9
20260504120139 52 280 0.0 0.0 0.00 0.00 0.00 84 1016.5
20260504110606 44 279 0.0 0.0 0.00 0.00 0.00 98 1016.6
20260504100528 43 280 0.0 0.0 0.00 0.00 0.00 97 1015.9
20260504081921 46 279 0.0 0.0 0.00 0.00 0.00 89 1016.2
20260504081418 47 279 0.0 0.0 0.00 0.00 0.00 88 1016.0
20260504080914 47 279 0.0 0.0 0.00 0.00 0.00 88 1016.0
20260504080411 48 279 0.0 0.0 0.00 0.00 0.00 88 1015.9
20260504070338 48 279 0.0 0.0 0.00 0.00 0.00 86 1016.0
20260504050721 53 280 0.0 1.0 0.00 0.00 0.00 75 1016.2
20260504050218 53 279 0.0 0.0 0.00 0.00 0.00 73 1016.1
20260504045716 53 279 0.0 1.0 0.00 0.00 0.00 73 1016.2
20260504045215 53 279 0.0 1.0 0.00 0.00 0.00 73 1016.0
20260504044714 53 279 0.0 1.0 0.00 0.00 0.00 73 1016.0
20260504044211 53 281 0.0 0.0 0.00 0.00 0.00 75 1016.2
20260504043708 53 281 0.0 0.0 0.00 0.00 0.00 76 1016.2
20260504043204 53 281 0.0 0.0 0.00 0.00 0.00 76 1016.1
20260504042702 53 281 0.0 0.0 0.00 0.00 0.00 75 1016.1
20260504042158 53 281 0.0 0.0 0.00 0.00 0.00 76 1016.2
20260504041654 53 281 0.0 0.0 0.00 0.00 0.00 76 1016.4
20260504041150 52 281 0.0 0.0 0.00 0.00 0.00 76 1016.2
20260504040647 52 287 0.0 0.0 0.00 0.00 0.00 76 1016.4
20260504040144 52 287 0.0 0.0 0.00 0.00 0.00 78 1016.4
20260504035641 52 287 0.0 0.0 0.00 0.00 0.00 78 1016.4
20260504035138 52 287 0.0 0.0 0.00 0.00 0.00 77 1016.5
20260504034635 53 287 0.0 0.0 0.00 0.00 0.00 76 1016.7
20260504034132 53 287 0.0 0.0 0.00 0.00 0.00 76 1016.6
20260504033630 53 287 0.0 0.0 0.00 0.00 0.00 75 1016.5
20260504033127 53 287 0.0 0.0 0.00 0.00 0.00 75 1016.8
20260504032624 53 287 0.0 0.0 0.00 0.00 0.00 75 1016.5
20260504032121 53 287 0.0 0.0 0.00 0.00 0.00 76 1016.5
20260504031618 53 287 0.0 0.0 0.00 0.00 0.00 75 1016.7
20260504031114 53 287 0.0 0.0 0.00 0.00 0.00 74 1016.8
20260504030611 53 287 0.0 0.0 0.00 0.00 0.00 74 1016.8
20260504030108 54 287 0.0 0.0 0.00 0.00 0.00 74 1016.7
20260504025605 54 287 0.0 0.0 0.00 0.00 0.00 73 1016.6
20260504025102 54 287 0.0 0.0 0.00 0.00 0.00 72 1016.6
20260504024559 54 287 0.0 0.0 0.00 0.00 0.00 72 1016.7
20260504024055 54 287 0.0 0.0 0.00 0.00 0.00 72 1016.5
20260504023552 54 287 0.0 0.0 0.00 0.00 0.00 72 1016.5
20260504023048 55 287 0.0 0.0 0.00 0.00 0.00 71 1016.4
20260504022544 55 287 0.0 0.0 0.00 0.00 0.00 70 1016.4
20260504022040 55 287 0.0 0.0 0.00 0.00 0.00 70 1016.4
20260504021538 55 287 0.0 0.0 0.00 0.00 0.00 70 1016.3
20260504021035 55 287 0.0 0.0 0.00 0.00 0.00 70 1016.1
20260504020532 55 288 0.0 0.0 0.00 0.00 0.00 70 1016.0
20260504020028 54 289 0.0 0.0 0.00 0.00 0.00 71 1016.0
20260504015525 55 289 0.0 0.0 0.00 0.00 0.00 70 1016.1
20260504015020 55 289 0.0 0.0 0.00 0.00 0.00 70 1015.9
20260504014517 55 289 0.0 0.0 0.00 0.00 0.00 70 1015.8